Regional Weather Roundup
Issued by NWS Upton, NY

Current Version | Previous Version | Graphics & Text | Print | Product List | Glossary Off
Versions: 1 2 3 4 5 6 7 8 9 10 11 12 13 14 15 16 17 18 19 20 21 22 23 24 25 26 27 28 29 30 31 32 33 34 35 36 37 38 39 40 41 42 43 44 45 46 47 48 49 50

000
ASUS41 KOKX 291609
RWROKX

REGIONAL WEATHER ROUNDUP
NATIONAL WEATHER SERVICE NEW YORK NY
1200 PM EDT WED JUL 29 2015

NOTE: "FAIR" INDICATES FEW OR NO CLOUDS BELOW 12,000 FEET WITH NO
SIGNIFICANT WEATHER AND/OR OBSTRUCTIONS TO VISIBILITY.

NYZ071-072-176-178-NJZ106-104-291700-
NEW YORK CITY METRO AREA


CITY           SKY/WX    TMP DP  RH WIND       PRES   REMARKS
CENTRAL PARK   PTSUNNY   92  61  35 CALM      30.01S HX  92
LAGUARDIA APRT PTSUNNY   91  64  40 NE6       29.97F HX  92
KENNEDY INTL   PTSUNNY   92  67  43 S10       29.98F HX  95
NEWARK/LIBERTY PTSUNNY   93  63  36 E7        29.97F HX  94
BRNX BOT. GARD   N/A     90  64  43 NE6       29.99S HX  91
TETERBORO      PTSUNNY   92  62  36 N3        29.96F HX  92
$$

NYZ177-179-078>081-291700-
LONG ISLAND NEW YORK

CITY           SKY/WX    TMP DP  RH WIND       PRES   REMARKS
FARMINGDALE    MOSUNNY   92  63  38 VRB3      29.98F HX  93
ISLIP          CLOUDY    87  71  58 S9        29.96F HX  93
SHIRLEY        MOSUNNY   91  68  46 S9        29.98F HX  95
WESTHAMPTON    MOSUNNY   87  71  58 S8        29.99F HX  93
MONTAUK POINT    N/A     87  74  64 VRB5      29.99F HX  95
$$

NYZ052-065-067-291700-
HUDSON VALLEY

CITY           SKY/WX    TMP DP  RH WIND       PRES   REMARKS
WHITE PLAINS   PTSUNNY   89  65  44 NW5       29.99F HX  91
NEWBURGH       SUNNY     84  68  58 CALM      30.01F
MONTGOMERY     MOSUNNY   89  66  46 VRB3      29.99F HX  91
POUGHKEEPSIE   PTSUNNY   88  66  48 VRB3      29.98F HX  90
ALBANY         PTSUNNY   87  64  46 VRB5      29.98F
$$

NJZ001-105-106-008-010-013-015-019>022-104-291700-
NEW JERSEY

CITY           SKY/WX    TMP DP  RH WIND       PRES   REMARKS
NEWARK/LIBERTY PTSUNNY   93  63  36 E7        29.97F HX  94
TETERBORO      PTSUNNY   92  62  36 N3        29.96F HX  92
CALDWELL       MOSUNNY   91  63  39 VRB5      29.99S HX  92
MORRISTOWN     PTSUNNY   93  64  38 SE6       29.99F HX  95
SOMERVILLE     MOSUNNY   92  64  39 W3        29.97S HX  93
SUSSEX         SUNNY     87  65  47 E6        30.01S
ANDOVER          N/A     86  68  54 CALM      30.01F
TRENTON        MOSUNNY   90  64  42 SW6       29.99S HX  91
MILLVILLE      MOSUNNY   88  72  58 SW6       30.01F HX  94
ATLANTIC CITY  MOSUNNY   87  73  62 S7        30.01F HX  94
WRIGHTSTOWN    SUNNY     90  68  48 SW9       29.97S HX  94
TOMS RIVER       N/A     91  64  40 W6        29.99S HX  93
BELMAR         MOSUNNY   90  63  40 SW5       30.00S HX  90
$$

PAZ047>061-062-071-291700-
EASTERN PENNSYLVANIA

CITY           SKY/WX    TMP DP  RH WIND       PRES   REMARKS
PHILADELPHIA   PTSUNNY   89  71  55 SW7       30.00F HX  95
ALLENTOWN      MOSUNNY   89  70  53 N6        30.00F HX  94
SCRANTON       MOSUNNY   88  64  44 MISG      30.03F
$$

CTZ002-004>006-009-010-012-RIZ004-006-007-MAZ004-011-015-291700-
SOUTHERN NEW ENGLAND
 IN CT

CITY           SKY/WX    TMP DP  RH WIND       PRES   REMARKS
BRADLEY INTL   PTSUNNY   87  66  49 CALM      29.96F
HARTFORD       MOSUNNY   88  68  51 CALM      29.96F HX  91
DANBURY        PTSUNNY   87  64  46 SW6       30.01S
WTRBRY/OXFORD  NOT AVBL
BRIDGEPORT     PTSUNNY   83  70  64 SW9       29.98S
MERIDEN        MOSUNNY   93  63  36 SW5       29.97S HX  94
NEW HAVEN      PTSUNNY   82  68  62 SW5       29.98S
CHESTER        FAIR      88  64  45 W5        29.99F
GROTON         MOSUNNY   79  69  71 S7        29.96F
WILLIMANTIC    PTSUNNY   89  69  51 W6        29.97F HX  93

 IN RI

CITY           SKY/WX    TMP DP  RH WIND       PRES   REMARKS
PROVIDENCE     PTSUNNY   88  70  55 S10       29.96F HX  93
BLOCK ISLAND   PTSUNNY   84  70  61 SW7       29.99F
WESTERLY       PTSUNNY   85  70  60 SW5       29.98F

 IN MA

CITY           SKY/WX    TMP DP  RH WIND       PRES   REMARKS
BOSTON         PTSUNNY   86  63  45 SE9       29.94F
WORCESTER      PTSUNNY   84  61  45 CALM      30.00F
WESTFIELD      MOSUNNY   87  67  51 CALM      29.97F HX  90
PROVINCETOWN   SUNNY     84  64  51 NW5       29.95F
NANTUCKET      SUNNY     81  70  69 SW14      29.96F
$$

ANZ330-335-338-340-345-350-353-355-291700-
COASTAL MARINE OBSERVATIONS


STATION/POSITION TIME  SKY/WX   TEMP    WIND        PRES    VSBY  WAVE
                                AIR SEA DIR/SP/G                  HT/PER
                 (UTC)          (F)     (DEG/KT/KT) (MB)    (MI)  (FT/S)
NY HARB ENTRANCE 1550            78 78  190/  6/  6 1015.2          2/ 7
4S FIRE IS       NOT AVBL
20S FIRE ISLAND  1550            76 75  210/  4/  6 1015.3          2/ 8
GREAT SOUTH BAY  1500            80 82  180/  6/  8   N/A
23SW MTP         1550            75 73  220/  6/  6 1015.0          2/ 8
HUDSON CANYON    NOT AVBL
KINGS POINT      1500            86 70   20/  4/  6 1014.7
EXECUTION ROCKS  1500            80     120/  4/  4   N/A
CENTRAL LI SOUND NOT AVBL
EASTERN LI SOUND 1500            76 69  210/  4/  4   N/A
ROBBINS REEF     1500            85     150/  2/  2 1014.3
$$


>>>>>>>>>>>>>>>>>>>>>>>>>>>> KEY <<<<<<<<<<<<<<<<<<<<<<<<<<<
>                                                          <
>     SKY/WX - SKY CONDITION/PRESENT WEATHER               <
>     TMP    - TEMPERATURE IN FAHRENHEIT                   <
>     DP     - DEWPOINT IN FAHRENHEIT                      <
>     RH     - RELATIVE HUMIDITY IN PERCENT                <
>     WIND   - DIRECTION AND SPEED IN MPH                  <
>     PRES   - MEAN SEA LEVEL PRESSURE IN INCHES OF HG     <
>     WCI    - WIND CHILL INDEX                            <
>     VSB    - VISIBILITY IN MILES                         <
>     HX     - HEAT INDEX                                  <
>     TC     - TEMPERATURE IN CELSIUS                      <
>     VRB    - VARIABLE WIND DIRECTION                     <
>                                                          <
>>>>>>>>>>>>>>>>>>>>>>>>>>>> KEY <<<<<<<<<<<<<<<<<<<<<<<<<<<




USA.gov is the U.S. government's official web portal to all federal, state and local government web resources and services.